QPF
0.00 0.00 0.00 0.00 0.00 0.00 0.00 0.00 0.00 0.00 0.01 0.02 0.01 0.00 0.00 0.01 0.02 0.02 0.02 0.03 0.05 0.05 0.04 0.03 0.01 0.01 0.01 0.02 0.02 0.01 0.01 0.01 0.02 0.04 0.05 0.07 0.08 0.08 0.07 0.06 0.05 0.04 0.03 0.02
0.00 0.00 0.00 0.00 0.00 0.00 0.00 0.00 0.00 0.00 0.01 0.02 0.01 0.01 0.01 0.01 0.02 0.03 0.02 0.02 0.04 0.04 0.04 0.04 0.02 0.02 0.02 0.02 0.03 0.02 0.02 0.03 0.03 0.04 0.07 0.08 0.08 0.07 0.07 0.06 0.05 0.04 0.03 0.03
0.00 0.00 0.00 0.00 0.00 0.00 0.00 0.00 0.00 0.01 0.01 0.00 0.00 0.01 0.01 0.02 0.02 0.02 0.02 0.02 0.02 0.03 0.04 0.04 0.02 0.02 0.03 0.04 0.03 0.02 0.02 0.02 0.03 0.04 0.07 0.09 0.07 0.06 0.05 0.04 0.04 0.04 0.03 0.04
0.00 0.01 0.01 0.00 0.00 0.01 0.01 0.01 0.00 0.00 0.01 0.00 0.00 0.01 0.01 0.01 0.01 0.01 0.01 0.01 0.01 0.02 0.02 0.03 0.03 0.03 0.04 0.04 0.03 0.03 0.02 0.02 0.02 0.02 0.03 0.04 0.05 0.05 0.05 0.05 0.05 0.05 0.04 0.04
0.01 0.01 0.01 0.01 0.01 0.01 0.01 0.02 0.01 0.01 0.01 0.01 0.00 0.01 0.02 0.01 0.00 0.00 0.01 0.01 0.01 0.02 0.02 0.03 0.04 0.05 0.04 0.03 0.03 0.02 0.03 0.03 0.02 0.02 0.02 0.02 0.03 0.04 0.05 0.05 0.04 0.05 0.06 0.06
0.01 0.01 0.02 0.02 0.01 0.01 0.02 0.04 0.02 0.01 0.01 0.01 0.01 0.03 0.03 0.01 0.01 0.01 0.01 0.01 0.02 0.02 0.02 0.02 0.03 0.04 0.05 0.04 0.04 0.03 0.04 0.05 0.03 0.02 0.02 0.02 0.03 0.04 0.04 0.04 0.05 0.06 0.06 0.07
0.01 0.01 0.02 0.01 0.00 0.01 0.03 0.04 0.02 0.01 0.01 0.01 0.01 0.02 0.02 0.01 0.01 0.02 0.02 0.02 0.02 0.03 0.03 0.03 0.04 0.05 0.08 0.09 0.08 0.06 0.05 0.05 0.05 0.05 0.03 0.03 0.03 0.03 0.03 0.05 0.06 0.06 0.05 0.06
0.02 0.02 0.03 0.02 0.01 0.02 0.03 0.03 0.02 0.02 0.01 0.01 0.01 0.01 0.01 0.02 0.03 0.03 0.02 0.02 0.02 0.01 0.02 0.03 0.03 0.03 0.03 0.04 0.07 0.07 0.08 0.07 0.07 0.05 0.04 0.03 0.03 0.04 0.05 0.08 0.08 0.07 0.06 0.06
0.05 0.05 0.04 0.02 0.02 0.02 0.02 0.01 0.02 0.01 0.01 0.01 0.01 0.01 0.02 0.03 0.03 0.02 0.01 0.01 0.01 0.01 0.02 0.02 0.02 0.02 0.02 0.02 0.02 0.04 0.05 0.06 0.06 0.06 0.06 0.06 0.06 0.06 0.07 0.07 0.09 0.09 0.09 0.09
0.04 0.04 0.03 0.03 0.04 0.06 0.04 0.03 0.02 0.02 0.02 0.02 0.03 0.03 0.03 0.02 0.01 0.02 0.02 0.02 0.02 0.02 0.02 0.03 0.03 0.03 0.03 0.02 0.02 0.02 0.03 0.03 0.03 0.04 0.04 0.05 0.05 0.04 0.04 0.04 0.04 0.04 0.04 0.04
0.03 0.03 0.03 0.03 0.05 0.08 0.06 0.03 0.02 0.02 0.02 0.02 0.02 0.01 0.01 0.01 0.02 0.03 0.05 0.04 0.04 0.05 0.05 0.06 0.07 0.05 0.04 0.03 0.03 0.03 0.04 0.03 0.03 0.04 0.04 0.04 0.04 0.03 0.02 0.01 0.01 0.01 0.01 0.01
0.05 0.04 0.05 0.05 0.05 0.04 0.03 0.02 0.02 0.01 0.02 0.01 0.01 0.01 0.01 0.01 0.02 0.03 0.04 0.05 0.06 0.07 0.08 0.10 0.10 0.09 0.05 0.04 0.03 0.03 0.03 0.02 0.03 0.04 0.04 0.04 0.03 0.02 0.01 0.01 0.01 0.01 0.01 0.01
0.04 0.06 0.05 0.05 0.04 0.02 0.01 0.01 0.01 0.01 0.00 0.00 0.00 0.00 0.00 0.01 0.01 0.01 0.02 0.05 0.06 0.05 0.06 0.06 0.07 0.07 0.06 0.05 0.04 0.03 0.04 0.04 0.04 0.04 0.03 0.03 0.03 0.02 0.02 0.01 0.01 0.01 0.01 0.01
0.05 0.06 0.08 0.05 0.03 0.01 0.00 0.00 0.00 0.00 0.00 0.00 0.00 0.00 0.00 0.00 0.00 0.00 0.01 0.02 0.03 0.04 0.04 0.04 0.04 0.04 0.04 0.03 0.04 0.03 0.03 0.04 0.05 0.05 0.03 0.02 0.02 0.02 0.02 0.01 0.01 0.01 0.02 0.02
0.09 0.07 0.09 0.07 0.03 0.01 0.00 0.00 0.00 0.01 0.01 0.01 0.01 0.01 0.01 0.00 0.00 0.01 0.01 0.01 0.02 0.03 0.03 0.03 0.03 0.03 0.03 0.03 0.03 0.03 0.04 0.04 0.05 0.05 0.04 0.03 0.02 0.02 0.02 0.02 0.01 0.01 0.01 0.01
0.09 0.06 0.06 0.07 0.07 0.04 0.02 0.01 0.01 0.01 0.01 0.01 0.00 0.01 0.00 0.00 0.01 0.01 0.01 0.02 0.03 0.03 0.03 0.03 0.04 0.05 0.05 0.04 0.04 0.04 0.04 0.04 0.05 0.04 0.03 0.03 0.03 0.03 0.03 0.02 0.02 0.01 0.01 0.01
0.07 0.05 0.04 0.02 0.03 0.05 0.04 0.03 0.01 0.01 0.00 0.00 0.00 0.00 0.01 0.01 0.01 0.01 0.02 0.03 0.03 0.03 0.04 0.05 0.05 0.05 0.06 0.05 0.04 0.03 0.03 0.03 0.04 0.04 0.03 0.02 0.02 0.03 0.03 0.02 0.02 0.02 0.02 0.02
0.05 0.04 0.03 0.02 0.03 0.03 0.02 0.02 0.03 0.02 0.01 0.01 0.01 0.01 0.01 0.02 0.02 0.02 0.03 0.04 0.04 0.04 0.04 0.05 0.05 0.05 0.05 0.04 0.03 0.02 0.02 0.03 0.02 0.02 0.03 0.03 0.02 0.02 0.02 0.03 0.03 0.02 0.02 0.02
0.04 0.05 0.04 0.04 0.03 0.02 0.01 0.01 0.01 0.02 0.02 0.02 0.02 0.02 0.02 0.03 0.03 0.03 0.03 0.03 0.03 0.03 0.03 0.04 0.05 0.05 0.05 0.03 0.02 0.02 0.03 0.03 0.03 0.02 0.01 0.02 0.02 0.02 0.02 0.02 0.02 0.03 0.03 0.04
0.04 0.05 0.03 0.01 0.01 0.01 0.01 0.00 0.00 0.00 0.00 0.01 0.01 0.02 0.03 0.03 0.03 0.03 0.04 0.04 0.03 0.04 0.04 0.04 0.06 0.06 0.05 0.03 0.02 0.02 0.02 0.03 0.03 0.03 0.02 0.01 0.01 0.02 0.02 0.02 0.03 0.04 0.04 0.03
0.04 0.03 0.01 0.01 0.01 0.01 0.01 0.00 0.01 0.01 0.01 0.01 0.01 0.02 0.02 0.03 0.03 0.03 0.04 0.05 0.05 0.06 0.06 0.07 0.07 0.07 0.06 0.04 0.03 0.02 0.01 0.01 0.02 0.02 0.02 0.02 0.02 0.02 0.02 0.02 0.02 0.03 0.03 0.03
0.02 0.01 0.01 0.01 0.01 0.01 0.01 0.01 0.01 0.01 0.01 0.01 0.02 0.02 0.02 0.02 0.02 0.03 0.03 0.05 0.06 0.08 0.10 0.10 0.09 0.09 0.08 0.06 0.04 0.02 0.02 0.02 0.02 0.02 0.02 0.02 0.02 0.03 0.03 0.04 0.04 0.04 0.03 0.03
0.03 0.01 0.01 0.01 0.01 0.01 0.01 0.01 0.01 0.02 0.02 0.01 0.01 0.02 0.03 0.03 0.03 0.03 0.03 0.04 0.04 0.06 0.08 0.09 0.10 0.10 0.09 0.06 0.04 0.03 0.02 0.02 0.02 0.02 0.02 0.03 0.04 0.04 0.04 0.03 0.03 0.02 0.02 0.02
0.03 0.02 0.01 0.01 0.01 0.01 0.01 0.01 0.01 0.02 0.03 0.03 0.03 0.03 0.04 0.04 0.03 0.03 0.03 0.04 0.04 0.05 0.05 0.06 0.07 0.08 0.07 0.04 0.03 0.03 0.02 0.02 0.01 0.02 0.02 0.02 0.02 0.02 0.02 0.02 0.02 0.02 0.02 0.01
0.03 0.03 0.03 0.03 0.02 0.02 0.02 0.02 0.02 0.02 0.03 0.03 0.04 0.04 0.04 0.04 0.03 0.02 0.03 0.04 0.03 0.04 0.04 0.05 0.05 0.06 0.06 0.04 0.03 0.02 0.02 0.02 0.02 0.01 0.02 0.02 0.01 0.01 0.01 0.02 0.02 0.01 0.02 0.02
0.03 0.03 0.04 0.03 0.03 0.03 0.03 0.03 0.02 0.02 0.02 0.03 0.03 0.03 0.03 0.04 0.04 0.04 0.05 0.05 0.04 0.04 0.04 0.04 0.05 0.04 0.04 0.04 0.04 0.03 0.02 0.02 0.02 0.01 0.01 0.01 0.01 0.01 0.01 0.01 0.01 0.01 0.01 0.02
0.02 0.03 0.04 0.04 0.03 0.03 0.03 0.03 0.02 0.02 0.02 0.04 0.04 0.03 0.04 0.04 0.05 0.05 0.04 0.05 0.05 0.05 0.04 0.04 0.04 0.04 0.04 0.03 0.02 0.02 0.02 0.02 0.02 0.01 0.01 0.01 0.00 0.00 0.00 0.00 0.01 0.01 0.01 0.01
MSLP
1007.21 1007.09 1006.89 1006.62 1006.31 1005.98 1005.64 1005.30 1004.95 1004.60 1004.25 1003.90 1003.58 1003.30 1003.06 1002.89 1002.79 1002.76 1002.81 1002.93 1003.13 1003.39 1003.73 1004.15 1004.63 1005.16 1005.73 1006.31 1006.87 1007.37 1007.80 1008.14 1008.38 1008.55 1008.68 1008.80 1008.97 1009.21 1009.56 1010.01 1010.57 1011.20 1011.87 1012.53
1007.78 1007.59 1007.27 1006.85 1006.36 1005.85 1005.36 1004.91 1004.50 1004.15 1003.86 1003.63 1003.46 1003.33 1003.25 1003.20 1003.20 1003.24 1003.33 1003.48 1003.69 1003.97 1004.33 1004.76 1005.26 1005.80 1006.37 1006.93 1007.43 1007.87 1008.21 1008.44 1008.59 1008.68 1008.74 1008.83 1008.99 1009.24 1009.62 1010.11 1010.70 1011.36 1012.04 1012.71
1008.13 1007.90 1007.52 1007.02 1006.44 1005.83 1005.26 1004.75 1004.33 1004.02 1003.81 1003.70 1003.65 1003.66 1003.71 1003.77 1003.84 1003.93 1004.04 1004.17 1004.37 1004.62 1004.96 1005.37 1005.85 1006.38 1006.92 1007.44 1007.90 1008.27 1008.54 1008.72 1008.80 1008.84 1008.87 1008.94 1009.10 1009.37 1009.77 1010.29 1010.91 1011.58 1012.26 1012.92
1008.27 1008.06 1007.68 1007.17 1006.57 1005.95 1005.37 1004.87 1004.49 1004.23 1004.10 1004.09 1004.16 1004.27 1004.41 1004.54 1004.65 1004.75 1004.84 1004.94 1005.07 1005.27 1005.55 1005.90 1006.33 1006.81 1007.31 1007.79 1008.21 1008.55 1008.79 1008.93 1008.99 1009.02 1009.05 1009.13 1009.30 1009.60 1010.01 1010.55 1011.17 1011.83 1012.50 1013.13
1008.28 1008.12 1007.79 1007.33 1006.79 1006.22 1005.69 1005.24 1004.91 1004.71 1004.66 1004.71 1004.85 1005.03 1005.22 1005.37 1005.49 1005.56 1005.60 1005.63 1005.69 1005.80 1005.99 1006.28 1006.64 1007.06 1007.52 1007.97 1008.37 1008.69 1008.93 1009.08 1009.16 1009.21 1009.26 1009.37 1009.57 1009.88 1010.31 1010.84 1011.45 1012.10 1012.74 1013.34
1008.24 1008.15 1007.91 1007.54 1007.09 1006.60 1006.14 1005.76 1005.48 1005.34 1005.32 1005.41 1005.57 1005.77 1005.95 1006.09 1006.17 1006.19 1006.16 1006.12 1006.09 1006.12 1006.22 1006.42 1006.72 1007.10 1007.52 1007.95 1008.35 1008.70 1008.97 1009.16 1009.30 1009.40 1009.50 1009.65 1009.89 1010.21 1010.64 1011.16 1011.75 1012.36 1012.97 1013.54
1008.20 1008.18 1008.03 1007.77 1007.43 1007.03 1006.65 1006.32 1006.08 1005.94 1005.93 1006.00 1006.14 1006.29 1006.44 1006.53 1006.55 1006.51 1006.41 1006.30 1006.19 1006.15 1006.18 1006.33 1006.57 1006.92 1007.32 1007.76 1008.19 1008.59 1008.92 1009.18 1009.39 1009.56 1009.74 1009.94 1010.21 1010.55 1010.98 1011.48 1012.04 1012.62 1013.19 1013.73
1008.18 1008.23 1008.17 1008.01 1007.75 1007.43 1007.10 1006.79 1006.55 1006.39 1006.33 1006.34 1006.40 1006.49 1006.56 1006.58 1006.54 1006.44 1006.29 1006.13 1005.98 1005.89 1005.89 1006.00 1006.23 1006.56 1006.98 1007.44 1007.92 1008.37 1008.78 1009.13 1009.42 1009.68 1009.93 1010.19 1010.49 1010.85 1011.28 1011.77 1012.30 1012.85 1013.40 1013.93
1008.18 1008.28 1008.29 1008.19 1008.00 1007.73 1007.41 1007.10 1006.82 1006.59 1006.44 1006.35 1006.32 1006.31 1006.29 1006.24 1006.15 1006.01 1005.84 1005.65 1005.50 1005.41 1005.41 1005.52 1005.75 1006.10 1006.54 1007.04 1007.57 1008.08 1008.56 1008.99 1009.37 1009.71 1010.03 1010.35 1010.69 1011.08 1011.51 1011.99 1012.51 1013.05 1013.59 1014.12
1008.19 1008.32 1008.36 1008.30 1008.14 1007.88 1007.55 1007.20 1006.85 1006.53 1006.27 1006.07 1005.92 1005.81 1005.71 1005.60 1005.47 1005.32 1005.16 1005.00 1004.88 1004.82 1004.85 1005.00 1005.26 1005.63 1006.10 1006.63 1007.19 1007.75 1008.29 1008.78 1009.23 1009.63 1010.01 1010.38 1010.76 1011.18 1011.63 1012.12 1012.64 1013.19 1013.74 1014.27
1008.18 1008.32 1008.38 1008.33 1008.17 1007.89 1007.54 1007.12 1006.69 1006.28 1005.91 1005.60 1005.35 1005.14 1004.98 1004.83 1004.70 1004.56 1004.44 1004.33 1004.27 1004.28 1004.36 1004.55 1004.85 1005.24 1005.72 1006.26 1006.84 1007.42 1007.98 1008.50 1008.98 1009.43 1009.85 1010.26 1010.68 1011.12 1011.60 1012.12 1012.67 1013.24 1013.81 1014.37
1008.16 1008.29 1008.34 1008.29 1008.12 1007.82 1007.42 1006.96 1006.46 1005.96 1005.50 1005.10 1004.77 1004.50 1004.30 1004.14 1004.02 1003.93 1003.86 1003.83 1003.84 1003.92 1004.06 1004.29 1004.61 1005.01 1005.48 1006.00 1006.55 1007.10 1007.64 1008.16 1008.64 1009.10 1009.54 1009.98 1010.43 1010.91 1011.43 1011.98 1012.56 1013.17 1013.77 1014.36
1008.13 1008.25 1008.29 1008.22 1008.04 1007.72 1007.30 1006.80 1006.25 1005.71 1005.19 1004.74 1004.36 1004.06 1003.84 1003.69 1003.60 1003.55 1003.55 1003.59 1003.68 1003.81 1004.00 1004.25 1004.57 1004.95 1005.38 1005.85 1006.34 1006.83 1007.32 1007.79 1008.25 1008.70 1009.14 1009.59 1010.07 1010.58 1011.13 1011.72 1012.34 1012.98 1013.62 1014.23
1008.10 1008.21 1008.24 1008.17 1007.97 1007.66 1007.23 1006.73 1006.17 1005.61 1005.08 1004.60 1004.20 1003.90 1003.68 1003.55 1003.49 1003.49 1003.54 1003.64 1003.77 1003.95 1004.16 1004.42 1004.71 1005.05 1005.41 1005.80 1006.21 1006.62 1007.03 1007.44 1007.85 1008.27 1008.70 1009.15 1009.65 1010.18 1010.77 1011.38 1012.03 1012.69 1013.34 1013.96
1008.10 1008.19 1008.21 1008.14 1007.95 1007.65 1007.24 1006.76 1006.23 1005.68 1005.16 1004.69 1004.30 1004.00 1003.80 1003.68 1003.64 1003.67 1003.76 1003.89 1004.05 1004.24 1004.46 1004.70 1004.96 1005.24 1005.53 1005.84 1006.15 1006.48 1006.81 1007.15 1007.50 1007.88 1008.29 1008.74 1009.24 1009.79 1010.38 1011.01 1011.67 1012.33 1012.97 1013.56
1008.12 1008.19 1008.20 1008.12 1007.95 1007.67 1007.30 1006.86 1006.37 1005.86 1005.37 1004.93 1004.55 1004.26 1004.06 1003.95 1003.92 1003.96 1004.06 1004.20 1004.37 1004.56 1004.77 1004.99 1005.21 1005.44 1005.67 1005.91 1006.15 1006.40 1006.66 1006.94 1007.25 1007.60 1007.98 1008.42 1008.91 1009.45 1010.04 1010.66 1011.29 1011.92 1012.52 1013.06
1008.14 1008.18 1008.17 1008.09 1007.92 1007.67 1007.34 1006.93 1006.49 1006.02 1005.57 1005.15 1004.79 1004.51 1004.30 1004.18 1004.14 1004.17 1004.26 1004.40 1004.57 1004.76 1004.96 1005.17 1005.37 1005.58 1005.78 1005.98 1006.18 1006.39 1006.61 1006.86 1007.14 1007.45 1007.82 1008.24 1008.71 1009.23 1009.78 1010.36 1010.93 1011.50 1012.03 1012.49
1008.12 1008.11 1008.06 1007.96 1007.80 1007.56 1007.25 1006.88 1006.47 1006.03 1005.60 1005.20 1004.84 1004.54 1004.33 1004.19 1004.13 1004.14 1004.22 1004.35 1004.52 1004.73 1004.94 1005.17 1005.39 1005.61 1005.82 1006.03 1006.23 1006.44 1006.66 1006.90 1007.16 1007.47 1007.82 1008.21 1008.64 1009.11 1009.61 1010.11 1010.61 1011.09 1011.52 1011.90
1008.00 1007.93 1007.84 1007.70 1007.51 1007.26 1006.95 1006.59 1006.19 1005.76 1005.33 1004.92 1004.55 1004.24 1004.00 1003.84 1003.76 1003.76 1003.84 1003.99 1004.18 1004.42 1004.69 1004.97 1005.25 1005.53 1005.80 1006.06 1006.31 1006.55 1006.79 1007.05 1007.32 1007.62 1007.94 1008.30 1008.68 1009.09 1009.50 1009.92 1010.32 1010.69 1011.03 1011.31
1007.79 1007.65 1007.49 1007.29 1007.05 1006.77 1006.43 1006.05 1005.63 1005.18 1004.73 1004.30 1003.91 1003.58 1003.31 1003.14 1003.05 1003.06 1003.16 1003.35 1003.60 1003.91 1004.26 1004.63 1005.01 1005.39 1005.75 1006.09 1006.41 1006.71 1007.00 1007.28 1007.56 1007.84 1008.14 1008.45 1008.77 1009.10 1009.43 1009.75 1010.05 1010.33 1010.57 1010.77
1007.48 1007.27 1007.04 1006.77 1006.47 1006.12 1005.73 1005.30 1004.83 1004.35 1003.87 1003.41 1002.99 1002.63 1002.36 1002.18 1002.12 1002.16 1002.31 1002.56 1002.90 1003.31 1003.77 1004.25 1004.75 1005.24 1005.71 1006.15 1006.55 1006.91 1007.24 1007.54 1007.81 1008.08 1008.34 1008.59 1008.84 1009.09 1009.33 1009.57 1009.78 1009.98 1010.16 1010.32
1007.15 1006.86 1006.56 1006.22 1005.84 1005.42 1004.96 1004.46 1003.94 1003.41 1002.88 1002.39 1001.95 1001.58 1001.32 1001.16 1001.13 1001.23 1001.45 1001.79 1002.24 1002.76 1003.33 1003.94 1004.56 1005.16 1005.73 1006.25 1006.71 1007.12 1007.47 1007.77 1008.04 1008.27 1008.48 1008.67 1008.85 1009.03 1009.20 1009.37 1009.53 1009.69 1009.84 1010.00
1006.86 1006.52 1006.15 1005.75 1005.29 1004.80 1004.26 1003.70 1003.11 1002.53 1001.96 1001.44 1000.99 1000.64 1000.39 1000.28 1000.31 1000.48 1000.79 1001.22 1001.77 1002.40 1003.08 1003.79 1004.50 1005.18 1005.82 1006.39 1006.89 1007.31 1007.66 1007.95 1008.18 1008.37 1008.52 1008.66 1008.78 1008.91 1009.04 1009.17 1009.32 1009.48 1009.65 1009.84
1006.69 1006.33 1005.91 1005.45 1004.94 1004.38 1003.77 1003.15 1002.51 1001.88 1001.29 1000.76 1000.32 999.98 999.78 999.72 999.81 1000.06 1000.45 1000.97 1001.60 1002.31 1003.06 1003.84 1004.60 1005.32 1005.98 1006.56 1007.05 1007.46 1007.78 1008.03 1008.22 1008.36 1008.47 1008.56 1008.66 1008.76 1008.88 1009.02 1009.19 1009.39 1009.62 1009.89
1006.71 1006.33 1005.90 1005.40 1004.85 1004.24 1003.59 1002.92 1002.25 1001.60 1001.00 1000.47 1000.05 999.76 999.60 999.59 999.75 1000.05 1000.51 1001.08 1001.76 1002.50 1003.28 1004.07 1004.83 1005.54 1006.17 1006.72 1007.18 1007.54 1007.82 1008.02 1008.17 1008.27 1008.36 1008.43 1008.53 1008.64 1008.79 1008.98 1009.21 1009.48 1009.80 1010.16
1006.91 1006.55 1006.11 1005.61 1005.03 1004.40 1003.73 1003.04 1002.36 1001.72 1001.13 1000.63 1000.25 999.99 999.88 999.93 1000.12 1000.47 1000.94 1001.53 1002.21 1002.94 1003.69 1004.43 1005.14 1005.79 1006.36 1006.85 1007.24 1007.55 1007.78 1007.94 1008.06 1008.16 1008.25 1008.34 1008.47 1008.63 1008.84 1009.10 1009.42 1009.78 1010.19 1010.65
1007.25 1006.91 1006.49 1006.00 1005.43 1004.80 1004.14 1003.47 1002.81 1002.19 1001.64 1001.19 1000.85 1000.64 1000.57 1000.65 1000.86 1001.21 1001.68 1002.24 1002.86 1003.53 1004.20 1004.86 1005.47 1006.03 1006.52 1006.92 1007.25 1007.51 1007.70 1007.85 1007.98 1008.10 1008.22 1008.38 1008.57 1008.81 1009.10 1009.45 1009.85 1010.30 1010.80 1011.33
Thickness
5799 5808 5810 5805 5806 5809 5805 5803 5793 5792 5793 5796 5802 5802 5802 5802 5801 5797 5794 5791 5789 5787 5785 5785 5784 5783 5781 5779 5777 5775 5772 5769 5766 5765 5763 5761 5759 5757 5756 5754 5753 5751 5750 5749
5785 5799 5801 5796 5803 5805 5804 5804 5800 5796 5789 5801 5803 5800 5795 5791 5791 5787 5785 5784 5782 5780 5778 5776 5775 5775 5774 5772 5772 5769 5766 5763 5762 5761 5758 5755 5753 5752 5750 5749 5747 5746 5744 5743
5767 5785 5784 5777 5795 5797 5798 5802 5797 5782 5785 5793 5791 5788 5785 5783 5784 5781 5779 5777 5775 5773 5772 5771 5770 5769 5767 5767 5766 5763 5759 5757 5756 5754 5752 5749 5748 5745 5743 5742 5740 5738 5737 5736
5761 5761 5743 5777 5805 5803 5794 5794 5796 5790 5789 5788 5786 5784 5785 5784 5780 5775 5773 5771 5769 5768 5766 5766 5766 5765 5763 5761 5759 5756 5753 5751 5749 5747 5745 5743 5740 5738 5737 5735 5733 5731 5729 5727
5751 5747 5754 5777 5791 5792 5783 5779 5791 5787 5784 5783 5782 5774 5772 5777 5776 5771 5768 5766 5764 5763 5762 5760 5758 5757 5756 5753 5751 5749 5746 5744 5742 5740 5737 5735 5732 5731 5730 5728 5726 5725 5723 5720
5744 5736 5736 5761 5784 5794 5781 5761 5782 5781 5774 5774 5770 5753 5754 5766 5767 5764 5762 5760 5758 5757 5755 5752 5751 5750 5746 5744 5741 5739 5739 5737 5736 5734 5731 5728 5725 5724 5723 5721 5719 5718 5716 5713
5736 5734 5747 5768 5782 5781 5750 5748 5773 5774 5769 5767 5761 5757 5758 5761 5758 5756 5754 5752 5752 5749 5746 5744 5743 5741 5737 5735 5733 5733 5732 5731 5728 5726 5724 5722 5719 5717 5716 5714 5712 5710 5708 5706
5733 5727 5733 5765 5769 5756 5751 5765 5766 5764 5762 5759 5756 5755 5753 5751 5749 5747 5746 5745 5744 5740 5737 5737 5736 5733 5730 5727 5727 5726 5725 5723 5721 5719 5718 5716 5713 5710 5708 5705 5703 5701 5699 5698
5733 5732 5745 5757 5755 5757 5761 5756 5756 5753 5752 5750 5746 5744 5743 5741 5740 5739 5738 5737 5735 5732 5730 5729 5728 5725 5721 5721 5720 5719 5716 5714 5713 5712 5710 5708 5706 5703 5700 5698 5695 5693 5691 5689
5731 5736 5744 5748 5751 5752 5753 5751 5749 5747 5745 5742 5737 5736 5733 5732 5730 5729 5729 5727 5724 5722 5720 5719 5720 5718 5716 5714 5713 5712 5709 5707 5706 5704 5702 5701 5699 5696 5693 5690 5687 5685 5683 5681
5725 5730 5735 5737 5739 5741 5742 5743 5741 5739 5737 5734 5731 5727 5725 5722 5721 5720 5719 5719 5717 5714 5712 5711 5711 5710 5709 5707 5706 5704 5702 5701 5700 5698 5695 5692 5690 5688 5686 5683 5681 5677 5676 5674
5715 5724 5723 5725 5733 5735 5732 5731 5731 5729 5727 5727 5724 5720 5718 5715 5713 5712 5711 5710 5709 5707 5705 5705 5703 5701 5700 5700 5698 5696 5694 5694 5694 5692 5690 5688 5684 5680 5677 5675 5673 5671 5668 5666
5722 5725 5725 5724 5726 5728 5726 5725 5724 5723 5721 5718 5717 5715 5711 5708 5707 5705 5703 5702 5700 5698 5697 5697 5696 5694 5693 5693 5691 5689 5688 5688 5688 5686 5684 5682 5679 5675 5670 5666 5664 5662 5660 5658
5719 5716 5712 5714 5715 5720 5721 5720 5719 5717 5714 5712 5710 5707 5704 5701 5699 5697 5695 5694 5693 5691 5690 5689 5688 5687 5687 5687 5685 5683 5682 5682 5681 5680 5678 5677 5674 5670 5667 5662 5658 5654 5650 5647
5710 5709 5708 5710 5712 5714 5714 5713 5709 5706 5705 5703 5701 5698 5694 5691 5689 5688 5688 5688 5686 5683 5682 5681 5680 5680 5681 5680 5678 5676 5675 5675 5674 5673 5671 5670 5667 5664 5661 5657 5653 5649 5645 5639
5703 5703 5703 5702 5703 5704 5704 5702 5699 5697 5697 5694 5692 5689 5687 5685 5682 5681 5681 5679 5676 5674 5673 5673 5672 5673 5674 5672 5671 5669 5668 5667 5666 5665 5664 5661 5659 5656 5653 5649 5645 5642 5638 5634
5693 5691 5692 5693 5694 5694 5694 5694 5693 5691 5689 5686 5684 5682 5679 5677 5675 5673 5672 5672 5670 5668 5667 5666 5665 5666 5665 5664 5663 5662 5662 5661 5658 5657 5656 5653 5651 5648 5645 5641 5637 5634 5630 5626
5693 5691 5691 5689 5688 5687 5686 5687 5686 5684 5681 5680 5678 5674 5671 5669 5666 5665 5665 5664 5662 5660 5659 5658 5658 5657 5656 5656 5655 5655 5655 5654 5652 5650 5648 5645 5642 5639 5636 5632 5629 5625 5621 5618
5689 5687 5686 5684 5683 5681 5679 5678 5677 5676 5674 5672 5668 5666 5664 5663 5661 5660 5659 5656 5653 5650 5650 5651 5649 5649 5649 5648 5648 5648 5647 5646 5644 5643 5640 5636 5634 5631 5626 5623 5620 5617 5613 5610
5682 5680 5679 5678 5677 5674 5672 5671 5670 5668 5666 5665 5662 5660 5658 5656 5655 5653 5651 5648 5647 5646 5646 5644 5643 5643 5643 5642 5640 5641 5640 5639 5637 5634 5632 5629 5625 5621 5618 5615 5611 5607 5604 5601
5672 5672 5671 5669 5667 5666 5665 5664 5662 5660 5659 5658 5655 5653 5651 5650 5649 5646 5644 5642 5641 5640 5639 5638 5637 5636 5636 5633 5633 5634 5633 5631 5629 5626 5623 5620 5616 5613 5610 5606 5603 5599 5596 5592
5664 5663 5661 5660 5658 5657 5657 5657 5655 5654 5652 5650 5649 5647 5645 5643 5642 5640 5639 5637 5636 5633 5633 5633 5632 5628 5627 5626 5627 5626 5625 5623 5621 5619 5616 5612 5608 5605 5602 5598 5595 5592 5588 5585
5656 5655 5653 5652 5651 5650 5649 5649 5648 5647 5645 5644 5641 5640 5638 5637 5637 5635 5633 5633 5632 5628 5627 5626 5624 5621 5620 5620 5620 5619 5617 5615 5613 5611 5609 5606 5602 5598 5594 5591 5588 5584 5580 5577
5648 5647 5645 5645 5645 5642 5640 5641 5641 5640 5639 5638 5636 5635 5633 5632 5633 5633 5631 5627 5624 5622 5622 5618 5616 5615 5613 5615 5614 5613 5610 5608 5607 5605 5602 5599 5594 5591 5587 5584 5580 5576 5572 5569
5640 5639 5639 5638 5636 5635 5634 5634 5634 5633 5633 5632 5632 5631 5631 5630 5629 5628 5626 5623 5620 5617 5617 5613 5610 5609 5609 5609 5608 5605 5604 5602 5600 5598 5595 5591 5587 5584 5580 5576 5572 5568 5564 5560
5634 5633 5633 5632 5632 5630 5631 5630 5629 5629 5628 5627 5627 5627 5627 5626 5625 5623 5620 5618 5616 5613 5612 5611 5608 5605 5604 5603 5600 5598 5597 5595 5593 5590 5587 5583 5580 5576 5572 5568 5564 5560 5556 5553
5628 5627 5626 5626 5627 5628 5627 5627 5625 5624 5624 5623 5621 5621 5621 5620 5619 5617 5615 5614 5612 5609 5608 5606 5603 5601 5598 5596 5594 5593 5591 5588 5585 5582 5579 5575 5572 5568 5565 5561 5557 5553 5548 5544